MIDAS 3 DEB, 6215

Orbit data source: Space-Track

MIDAS 3 DEB, 6215 is space debris in LEO originally from a launch on Wed, 12 Jul 1961 UTC launched from the Air Force Western Test Range (AFWTR). Debris objects in space refer to the collection of defunct objects orbiting the Earth. Examples of debris include non-operational satellites, rocket bodies, and fragments generated from explosions, collisions, or faulty payload assembly.

Loading next visibility...
Identifier
6215, 1961-018E
Orbit
LEO
Country
Flag of USUS
Related business
Manufacturer
Unknown
Mission
Spacecraft
Bus & Motor
Unknown
Mass
Unknown
Launch date (UTC)
1961-07-12 (64 years ago)
Launch vehicle
Unknown
Launch site
Air Force Western Test Range (AFWTR)
Object type
Payload
Rocket body
Debris
Shape & HBR
Unknown shape, 1.1 m
Radar Cross Section
Medium (>0.1 m² and <1 m²)

Expand to show TLE details & history
Last TLE update: 2 days ago

TLE from 2 days ago
0 MIDAS 3 DEB
1 06215U 61018E   25297.69454740  .00000018  00000-0  60996-2 0  9995
2 06215  91.1114 193.4041 0062864 104.7533 256.0315  8.90941955358945
Epoch: 2025-10-24T16:40Z
TLE epoch observation values (Epoch: 2025-10-24T16:40:08.895Z)
Latitude
-0.00007°
Longitude
-89.96873°
Altitude
3,468.222 km
Speed
6.358 km/s
True Right ascension
12h 53m 36s
True Declination
0° 00' 00"
Sunlit
Object was in daylight at epoch
Visualization orbit readout
Latitude
Unknown
Longitude
Unknown
Altitude
Unknown
Speed
Unknown
Apparent Right ascension
Unknown
Apparent Declination
Unknown
Sunlit
N/A
Visualization observer readout
Local Sidereal Time
18:12:50
Azimuth
Unknown
Elevation
Unknown
Doppler factor
Unknown
Orbital elements
Apogee altitude
3,510.245 km
Perigee altitude
3,386.697 km
Semi-major axis
9,826.608 km
Eccentricity
0.00629
Inclination
91.1114°
RAAN
193.4041°
Arg. of periapsis
104.7533°
True anomaly
255.33377°
Mean anomaly
256.0315°
Eccentric anomaly
255.6825°
Mean motion
2.22812 °/min
Orbital period
161.57 mins
BSTAR
0.0060996
Loading maneuver chart data...
Computing Atmospheric mass density...
Loading historical data...
Loading historical data...
Loading historical data...
Loading historical data...
Loading historical data...
Loading historical data...
Loading historical data...
Other satellites on launch #18 in the year 1961 (1961-07-12 UTC)

Documentation

Showing up to 5 results
|